Theta_e
313 314 316 316 318 320 320 322 323 323 326 327 332 334 333 327 326 325 330 334 333 338 339 334 335 332 328 326 324 323 321 323 322 322 322 320 317 316 315 314 312 310 309
311 312 314 315 317 316 316 317 320 320 322 325 327 328 330 335 329 327 326 328 331 332 336 335 336 337 329 328 323 323 322 325 323 321 320 319 316 314 313 310 309 309 308
309 309 310 312 312 313 314 316 317 317 318 320 322 324 326 329 333 329 325 325 331 332 331 332 334 332 327 331 327 325 326 327 327 322 321 319 316 314 311 311 310 309 310
309 308 308 309 310 310 312 313 315 316 316 316 318 321 324 324 328 331 332 330 330 329 327 326 327 326 330 326 324 323 324 325 326 325 320 316 314 313 312 309 307 309 307
310 308 308 309 310 310 310 310 312 314 315 316 316 317 318 320 327 325 326 328 328 328 326 327 327 325 326 325 323 321 321 320 322 325 321 318 313 311 311 310 307 307 307
307 308 310 309 310 310 310 310 309 309 311 315 314 315 314 318 311 311 320 323 324 325 327 328 324 326 326 321 320 320 323 320 319 319 317 319 314 312 312 309 308 307 304
306 307 307 307 307 306 307 307 306 305 307 308 310 310 309 311 307 305 307 318 320 321 323 323 326 328 322 324 317 317 317 316 318 319 318 318 318 316 315 310 306 304 304
303 304 304 304 304 305 305 304 304 304 303 304 306 308 308 310 306 305 304 309 317 319 321 323 323 324 325 323 322 322 322 322 320 321 318 320 323 320 318 316 311 305 304
301 301 302 302 301 302 301 301 302 303 304 304 305 304 306 306 306 303 303 309 312 315 319 320 324 323 317 310 323 321 322 323 321 315 313 313 311 315 320 315 310 307 302
299 299 300 299 298 297 298 298 299 299 300 301 302 304 305 304 303 302 301 308 308 310 314 317 310 320 308 306 319 322 321 321 321 317 314 309 312 315 313 320 314 311 306
300 299 299 298 298 297 297 297 297 296 297 297 297 299 302 304 303 302 300 303 307 310 311 313 315 303 305 304 306 322 319 321 318 318 315 316 316 320 322 320 320 316 309
299 298 297 297 297 298 296 296 297 296 294 294 294 296 299 301 302 300 297 297 301 305 308 313 313 306 299 300 303 309 306 308 321 318 316 316 318 318 320 323 321 319 319
297 296 296 296 296 296 295 295 294 294 293 292 293 294 295 299 299 299 297 297 300 300 304 310 305 301 298 299 300 302 303 313 319 319 317 316 318 321 318 319 316 314 311
295 294 294 293 293 294 294 294 293 293 293 293 293 294 295 296 298 298 299 296 297 298 303 306 306 305 305 308 306 302 309 315 318 320 320 320 320 320 321 319 314 312 308
292 292 292 292 291 291 292 292 292 293 293 292 292 293 292 293 295 295 295 296 297 295 296 308 309 307 309 310 312 310 310 313 317 320 321 320 320 320 321 319 314 311 309
290 290 290 290 290 290 290 290 292 292 292 292 292 292 294 294 293 293 293 293 293 293 296 298 308 309 309 310 310 311 311 311 315 319 320 321 321 321 321 319 315 313 309
290 290 290 290 289 289 289 288 287 290 292 292 291 291 291 292 292 292 292 292 292 293 296 297 299 305 305 307 307 312 311 315 317 318 320 321 321 321 318 319 316 313 310
290 290 289 289 289 289 289 288 288 287 287 288 291 291 292 291 291 291 290 291 292 293 295 295 296 300 303 304 306 308 309 312 313 317 317 320 321 321 320 320 317 313 309
289 289 289 289 289 289 289 288 288 288 288 288 290 291 291 291 291 291 290 291 292 294 295 296 298 300 304 303 305 308 309 310 311 313 315 317 317 317 319 320 318 306 305
289 289 289 288 287 288 288 288 288 288 288 288 289 289 291 291 291 292 293 292 292 293 294 296 298 299 302 303 303 305 306 307 309 311 312 314 315 316 316 319 319 311 310
289 289 287 288 288 288 288 288 288 288 288 288 289 290 288 289 290 291 293 295 295 294 294 295 298 299 301 301 303 304 306 307 311 311 311 311 313 313 314 316 318 316 313
290 289 289 289 289 288 288 287 287 288 288 288 289 290 287 289 290 291 292 293 295 297 299 298 297 298 300 301 304 304 305 307 309 311 311 312 312 312 313 312 312 314 316
289 290 290 290 289 288 288 288 287 287 287 287 288 289 289 289 290 290 292 294 294 295 297 299 300 299 300 300 301 302 303 308 310 312 311 312 312 312 312 311 312 311 312
291 290 290 289 289 288 287 287 286 286 286 286 287 287 288 289 290 291 292 293 294 295 296 298 299 301 300 299 299 300 303 304 307 307 310 312 312 307 312 313 312 312 312
291 290 289 288 288 287 286 286 286 286 286 286 286 286 288 288 289 290 291 293 293 295 297 298 299 299 300 301 299 299 296 292 299 294 307 311 311 311 312 314 313 313 313
290 289 288 288 287 286 285 285 285 285 285 285 286 286 287 287 288 289 290 292 293 294 295 296 298 300 300 301 302 295 290 290 294 291 303 307 306 306 306 311 313 312 312
Wind_Speed
7 6 7 7 7 7 6 6 6 5 6 6 5 5 3 11 12 11 12 10 5 7 6 6 8 7 3 3 3 3 3 4 6 2 2 6 4 7 5 5 5 5 5
6 7 6 6 7 7 7 7 6 5 4 4 5 5 5 5 14 9 10 4 6 9 12 9 11 7 6 5 4 5 5 3 6 11 6 3 3 5 5 6 5 3 3
7 7 7 6 6 7 7 7 7 6 4 4 4 4 6 6 1 8 7 6 7 15 7 10 7 5 5 2 2 4 4 4 7 10 7 3 2 5 3 3 3 4 3
6 6 6 7 6 7 7 6 6 6 5 4 3 3 3 5 3 3 6 10 17 15 8 2 4 6 9 4 5 7 6 7 6 8 6 6 4 5 4 3 3 2 3
5 5 7 6 7 8 8 8 6 4 5 4 3 4 4 3 2 2 2 1 2 8 8 6 5 11 16 11 7 6 9 6 6 7 6 4 5 7 8 5 5 3 3
6 6 7 7 7 7 8 10 8 7 6 3 3 3 3 4 6 6 4 4 4 5 8 10 16 18 24 18 15 13 12 9 7 6 5 6 7 7 7 6 6 4 4
7 7 9 11 8 8 6 7 8 7 9 8 3 3 3 2 1 7 7 4 5 6 6 5 8 10 10 7 7 10 10 8 3 6 6 6 7 10 12 8 6 4 4
8 7 10 11 12 12 11 9 8 5 5 5 7 6 3 4 3 4 9 5 7 7 7 6 11 13 16 12 11 13 8 6 3 2 5 8 7 14 16 11 10 5 4
9 10 11 12 12 12 11 10 10 10 10 9 7 6 3 5 8 3 0 6 4 8 7 6 8 11 17 16 19 19 17 15 16 14 13 12 11 21 17 12 8 7 3
8 9 9 10 11 12 11 11 9 10 11 10 11 10 8 5 6 7 5 3 7 7 7 8 11 12 13 17 16 16 20 20 17 9 5 1 4 16 24 17 14 9 5
10 10 12 12 12 11 12 11 11 12 12 12 13 12 11 7 7 11 12 6 6 7 8 5 5 11 15 18 19 14 15 12 10 7 4 4 4 10 9 9 13 11 5
10 11 13 12 11 11 13 12 13 12 12 12 13 12 9 8 8 5 4 3 6 8 10 7 6 9 11 13 13 20 13 10 6 7 6 6 6 8 7 7 9 5 6
10 10 11 12 11 12 12 12 11 11 10 10 10 10 10 8 5 6 6 6 9 3 7 10 12 10 9 9 14 15 14 7 10 11 9 9 8 6 5 6 7 9 10
10 11 10 11 12 11 9 8 9 10 10 10 10 10 9 8 7 2 2 4 6 6 9 9 6 8 8 6 6 8 8 10 10 10 9 9 9 8 7 7 6 8 8
11 11 11 9 11 11 10 9 10 11 11 11 10 10 11 10 9 3 7 7 6 4 8 6 4 5 3 5 6 6 5 6 8 9 10 10 9 11 9 9 9 9 7
11 9 9 9 8 9 10 10 12 16 19 19 20 16 12 18 17 17 16 13 7 6 6 7 5 7 8 7 7 7 5 8 8 9 10 10 12 11 11 11 11 10 12
11 11 9 10 9 9 9 9 11 9 17 19 20 21 20 20 19 18 15 10 8 6 6 5 6 3 4 4 4 4 5 5 8 8 12 13 11 10 12 12 12 10 10
10 16 9 8 9 9 9 9 9 10 11 10 11 14 14 15 15 16 16 9 6 6 8 7 5 5 4 5 4 4 3 3 4 8 8 11 12 11 11 13 13 13 11
9 8 9 8 8 11 9 9 9 9 10 10 9 10 11 15 15 16 11 6 7 8 8 8 7 5 4 4 4 4 5 5 5 5 5 5 9 7 6 10 14 15 15
9 14 11 8 9 8 8 9 9 8 9 9 9 8 9 8 8 7 6 7 8 7 7 8 8 7 6 5 5 6 4 4 5 5 4 6 6 6 7 6 14 14 13
8 9 12 8 8 8 9 9 9 9 9 8 9 9 9 9 8 8 7 7 8 8 8 8 8 9 9 5 6 6 7 5 4 5 6 4 5 7 4 7 7 11 10
8 9 9 9 9 9 9 10 9 10 10 10 9 8 10 8 8 8 9 8 7 5 5 8 8 8 8 9 7 7 7 7 7 4 6 7 5 4 5 3 5 4 10
9 10 10 10 9 11 10 9 9 10 10 10 10 9 7 8 8 8 8 9 8 7 7 6 5 6 8 5 5 4 5 5 5 4 7 8 8 7 8 8 7 7 6
9 11 11 11 10 11 10 11 10 12 11 10 10 9 8 7 8 8 8 8 9 9 7 8 6 7 5 5 4 3 3 2 3 4 8 10 10 9 9 8 8 9 6
10 11 11 11 11 11 12 11 11 11 10 10 9 9 8 8 8 7 7 7 8 8 8 8 7 9 7 8 7 7 5 5 4 3 6 7 11 14 9 9 7 7 7
11 12 11 11 11 11 11 12 11 11 11 10 9 9 8 8 7 7 7 8 7 7 7 4 4 9 11 8 7 7 5 5 2 3 2 3 6 7 6 7 12 6 7
Wind_Direction
39 27 18 4 8 10 10 355 359 25 29 18 25 38 204 226 226 233 241 248 257 303 276 228 236 241 217 218 185 142 137 124 119 82 96 118 108 126 125 122 119 123 140
18 24 6 7 357 356 347 336 340 354 14 29 19 3 10 32 233 244 233 274 316 292 277 249 235 235 225 216 220 174 150 140 122 143 130 137 110 139 149 142 143 138 149
17 2 346 347 352 330 325 323 326 343 8 10 22 27 359 0 93 230 238 217 249 258 260 316 283 267 250 243 222 136 130 126 130 144 141 131 112 152 142 140 159 145 162
352 344 333 325 318 306 304 312 318 322 338 347 335 29 47 6 352 348 225 237 239 233 247 222 348 332 316 190 167 157 136 128 141 142 141 147 159 162 160 159 168 167 163
346 325 306 299 299 295 290 287 286 298 302 323 348 1 11 14 305 337 341 284 214 253 227 231 211 233 267 246 166 197 151 138 154 159 155 141 147 169 186 168 178 167 186
345 329 316 319 307 308 329 320 312 312 288 166 114 90 22 325 191 224 222 248 257 238 273 274 203 208 208 205 239 200 184 149 168 147 165 173 175 174 157 167 146 165 211
357 346 353 358 359 341 339 340 344 360 356 330 292 151 152 137 205 255 259 256 239 263 269 246 216 198 204 183 225 267 233 176 152 147 164 183 157 176 156 162 166 165 193
353 12 359 354 345 341 337 330 328 335 344 329 330 300 221 225 198 265 293 244 262 246 256 247 218 215 208 185 179 199 283 294 239 260 233 193 182 160 165 171 160 122 70
1 351 351 342 337 333 331 327 322 327 331 319 308 293 298 272 241 223 344 313 288 274 256 247 212 222 216 207 202 207 209 224 251 236 250 244 190 162 151 128 146 146 148
332 333 334 331 323 319 315 316 321 321 313 311 309 309 287 263 245 270 204 239 288 287 268 258 220 202 221 203 203 217 205 207 217 224 208 317 220 155 158 162 158 161 140
343 333 321 315 308 305 311 311 310 306 304 304 300 296 290 275 255 248 226 218 243 264 271 245 252 211 213 205 218 215 212 213 215 211 166 169 177 167 172 158 167 159 140
323 315 312 310 305 303 299 298 296 295 295 294 296 294 291 285 257 299 47 242 253 262 256 248 227 223 197 220 217 222 228 198 206 210 178 181 190 184 185 164 163 146 151
304 302 305 306 303 301 297 294 293 289 285 285 287 288 289 292 278 260 48 38 25 253 264 262 223 215 176 197 211 226 233 225 216 215 205 199 199 192 149 101 87 92 71
311 308 304 303 302 298 297 296 293 289 287 284 284 286 293 289 284 185 76 15 17 28 324 267 239 248 232 220 173 214 223 225 230 227 215 211 198 187 174 143 138 121 102
315 310 307 303 302 298 290 289 288 283 282 286 284 287 286 280 276 229 314 309 316 306 339 262 220 212 229 248 233 197 195 220 221 225 215 197 191 183 172 156 147 138 135
312 306 301 301 299 297 294 293 271 271 276 275 275 267 275 271 276 278 281 279 245 333 326 315 236 201 207 216 226 225 191 207 218 224 216 205 191 188 166 162 158 147 145
308 310 307 305 295 294 292 295 298 287 282 280 276 273 266 262 266 265 263 227 264 277 258 270 296 214 186 194 202 203 207 218 215 220 222 207 200 171 164 163 164 148 145
312 311 304 304 301 296 291 288 288 292 296 293 278 272 275 268 265 261 257 252 257 209 232 247 248 278 209 201 200 208 196 200 230 219 216 213 197 171 164 169 168 160 150
312 305 305 300 297 296 293 288 283 283 283 285 289 279 271 268 264 258 245 229 233 226 222 220 234 244 229 200 200 192 204 207 193 227 226 188 179 154 167 188 171 160 153
310 304 302 303 300 297 297 293 289 285 283 282 281 285 292 285 274 264 225 210 220 222 217 221 220 228 245 201 199 207 200 201 196 201 213 196 186 166 158 191 161 152 166
308 309 305 297 305 304 303 300 297 292 286 281 281 275 263 274 273 271 273 244 220 222 219 216 219 219 224 213 207 205 197 189 195 180 214 212 188 176 120 113 119 162 156
309 304 302 306 305 306 303 301 296 294 291 289 285 278 259 258 263 265 259 252 251 270 246 217 221 222 212 219 229 200 206 184 187 214 199 178 181 144 131 129 116 123 150
310 308 311 311 308 305 306 304 302 299 296 295 292 285 271 269 259 256 253 252 245 240 237 256 240 217 221 213 215 179 175 191 156 169 239 193 173 167 164 173 178 163 167
314 321 318 316 316 312 309 307 303 301 301 301 299 294 288 278 264 259 252 251 255 239 233 230 239 241 218 217 217 194 177 140 109 346 293 203 184 171 179 176 173 168 160
324 323 321 318 317 317 314 310 307 302 299 299 297 292 289 285 275 263 270 249 242 245 230 222 220 225 234 207 203 219 203 210 126 65 320 204 202 173 176 177 177 160 171
330 326 323 321 319 318 314 312 311 310 307 303 298 292 287 284 278 267 258 265 237 238 243 242 258 232 214 213 201 204 201 209 234 95 352 346 110 109 115 176 174 176 161